This is the latest recevied weather packets stored in our database for station/object AA0PB. If no packets are shown the sender has not sent any weather packets the latest 10 day(s).
| Time | Temp. | Humidity | Pressure | Rain* | Wind** | Luminosity | Snow |
|---|---|---|---|---|---|---|---|
| 1778119585 | 17.78° C | 74% | 1020.4 hPa | 0 mm | - | 64 W/m² | - |
| 1778119281 | 17.78° C | 72% | 1020.8 hPa | 0 mm | - | 76 W/m² | - |
| 1778118980 | 18.33° C | 70% | 1020.8 hPa | 0 mm | - | 70 W/m² | - |
| 1778118677 | 18.89° C | 68% | 1020.6 hPa | 0 mm | - | 64 W/m² | - |
| 1778118374 | 18.89° C | 68% | 1020.7 hPa | 0 mm | - | 101 W/m² | - |
| 1778118069 | 18.89° C | 71% | 1020.6 hPa | 0 mm | - | 155 W/m² | - |
| 1778117766 | 18.89° C | 68% | 1020.7 hPa | 0 mm | - | 141 W/m² | - |
| 1778117463 | 19.44° C | 66% | 1020.7 hPa | 0 mm | - | 132 W/m² | - |
| 1778117161 | 19.44° C | 66% | 1020.5 hPa | 0 mm | - | 207 W/m² | - |
| 1778116856 | 18.89° C | 68% | 1020.7 hPa | 0 mm | - | 252 W/m² | - |
| 1778116554 | 18.89° C | 68% | 1020.8 hPa | 0 mm | - | 139 W/m² | - |
| 1778116250 | 19.44° C | 68% | 1020.7 hPa | 0 mm | - | 125 W/m² | - |
| 1778115945 | 19.44° C | 68% | 1020.8 hPa | 0 mm | - | 112 W/m² | - |
| 1778115641 | 19.44° C | 70% | 1020.6 hPa | 0 mm | - | 121 W/m² | - |
| 1778115339 | 19.44° C | 70% | 1020.6 hPa | 0 mm | - | 290 W/m² | - |
| 1778115035 | 19.44° C | 69% | 1020.7 hPa | 0 mm | - | 152 W/m² | - |
| 1778114732 | 19.44° C | 72% | 1020.4 hPa | 0 mm | - | 170 W/m² | - |
| 1778114430 | 20° C | 70% | 1020.5 hPa | 0 mm | - | 166 W/m² | - |
| 1778114125 | 19.44° C | 70% | 1020.5 hPa | 0 mm | - | 179 W/m² | - |
| 1778113820 | 19.44° C | 72% | 1020.6 hPa | 0 mm | - | 144 W/m² | - |
| 1778113517 | 19.44° C | 71% | 1020.4 hPa | 0 mm | - | 345 W/m² | - |
| 1778113213 | 20° C | 71% | 1020.4 hPa | 0 mm | - | 176 W/m² | - |
| 1778112909 | 20° C | 70% | 1020.6 hPa | 0 mm | - | 173 W/m² | - |
| 1778112608 | 20° C | 71% | 1020.3 hPa | 0 mm | - | 438 W/m² | - |
| 1778112303 | 19.44° C | 71% | 1020.3 hPa | 0 mm | - | 208 W/m² | - |
* Rain latest hour (hover to see other rain measurements)
** Current wind speed in m/s (hover to see current wind gust speed)